RYR5AM LKPR-LIPE

Flight info

Callsign RYR5AM
Flight time 1h 8m
Altitude 35000
Route DOBEN DCT RUDAP P31 DOSEL M736 OLPIX DCT EKPEB DCT NAXAV DCT ADOSA M738 BENUS
Aircraft B738/M-SDE2E3FGHIRWXY/LB1

Departure

Time 2026-05-06 16:55
Airport Václav Havel Airport Prague (LKPR)

Arrival

Time 2026-05-06 18:03
Airport Bologna Guglielmo Marconi Airport (LIPE)
Time Latitude Longitude Altitude Speed Heading
2026-05-06 16:28 50.10748 14.26076 1169 ft 0 kts 124°
2026-05-06 16:48 50.10735 14.26107 1171 ft 10 kts 124°
2026-05-06 16:48 50.10695 14.26142 1172 ft 6 kts 188°
2026-05-06 16:48 50.10660 14.26105 1173 ft 7 kts 217°
2026-05-06 16:49 50.10605 14.26047 1173 ft 12 kts 211°
2026-05-06 16:49 50.10528 14.25982 1172 ft 13 kts 190°
2026-05-06 16:49 50.10458 14.26062 1175 ft 15 kts 126°
2026-05-06 16:49 50.10383 14.26219 1174 ft 21 kts 127°
2026-05-06 16:50 50.10283 14.26423 1174 ft 26 kts 127°
2026-05-06 16:50 50.10164 14.26670 1177 ft 30 kts 128°
2026-05-06 16:50 50.10037 14.26932 1192 ft 29 kts 127°
2026-05-06 16:50 50.09957 14.27098 1198 ft 28 kts 127°
2026-05-06 16:51 50.09796 14.27401 1203 ft 26 kts 135°
2026-05-06 16:51 50.09674 14.27596 1206 ft 24 kts 135°
2026-05-06 16:51 50.09556 14.27770 1211 ft 23 kts 137°
2026-05-06 16:51 50.09444 14.27941 1215 ft 22 kts 136°
2026-05-06 16:52 50.09336 14.28107 1214 ft 22 kts 135°
2026-05-06 16:52 50.09231 14.28261 1211 ft 18 kts 146°
2026-05-06 16:52 50.09145 14.28261 1210 ft 6 kts 210°
2026-05-06 16:52 50.09141 14.28257 1210 ft 0 kts 213°
2026-05-06 16:54 50.09118 14.28231 1210 ft 11 kts 215°
2026-05-06 16:54 50.09062 14.28162 1208 ft 3 kts 249°
2026-05-06 16:54 50.09069 14.28121 1207 ft 4 kts 296°
2026-05-06 16:55 50.09084 14.28086 1207 ft 14 kts 304°
2026-05-06 16:55 50.09494 14.27235 1205 ft 132 kts 307°
2026-05-06 16:55 50.10185 14.25802 1405 ft 190 kts 307°
2026-05-06 16:55 50.11032 14.24062 2203 ft 211 kts 308°
2026-05-06 16:56 50.11937 14.22187 3107 ft 220 kts 309°
2026-05-06 16:56 50.12874 14.20250 3972 ft 233 kts 309°
2026-05-06 16:56 50.13550 14.18842 4278 ft 249 kts 308°
2026-05-06 16:56 50.14619 14.16613 4924 ft 260 kts 308°
2026-05-06 16:57 50.16128 14.13473 5567 ft 282 kts 307°
2026-05-06 16:57 50.16916 14.11836 6110 ft 287 kts 307°
2026-05-06 16:57 50.17857 14.09120 7032 ft 285 kts 282°
2026-05-06 16:57 50.17924 14.06094 8069 ft 278 kts 255°
2026-05-06 16:58 50.17148 14.03368 8996 ft 275 kts 232°
2026-05-06 16:58 50.15785 14.01286 9873 ft 276 kts 217°
2026-05-06 16:58 50.14158 13.99581 10343 ft 294 kts 210°
2026-05-06 16:58 50.12282 13.97988 10534 ft 320 kts 207°
2026-05-06 16:59 50.10217 13.96338 10718 ft 344 kts 207°
2026-05-06 16:59 50.08040 13.94613 11183 ft 356 kts 207°
2026-05-06 16:59 50.05814 13.92834 11887 ft 361 kts 207°
2026-05-06 16:59 50.03590 13.91040 12656 ft 364 kts 207°
2026-05-06 17:00 50.01319 13.89191 13401 ft 368 kts 207°
2026-05-06 17:00 49.99040 13.87327 14065 ft 372 kts 207°
2026-05-06 17:00 49.96750 13.85447 14764 ft 375 kts 208°
2026-05-06 17:00 49.94432 13.83543 15465 ft 377 kts 208°
2026-05-06 17:01 49.92103 13.81629 16114 ft 381 kts 208°
2026-05-06 17:01 49.89746 13.79692 16749 ft 384 kts 208°
2026-05-06 17:01 49.87375 13.77747 17423 ft 387 kts 208°
2026-05-06 17:01 49.84984 13.75786 18072 ft 390 kts 208°
2026-05-06 17:02 49.82612 13.73845 18556 ft 394 kts 208°
2026-05-06 17:02 49.80171 13.71848 19073 ft 397 kts 208°
2026-05-06 17:02 49.77722 13.69847 19716 ft 397 kts 207°
2026-05-06 17:02 49.75276 13.67851 20287 ft 399 kts 207°
2026-05-06 17:03 49.72802 13.65833 20786 ft 403 kts 207°
2026-05-06 17:03 49.70310 13.63805 21292 ft 406 kts 207°
2026-05-06 17:03 49.67803 13.61767 21790 ft 409 kts 207°
2026-05-06 17:03 49.65278 13.59715 22279 ft 412 kts 207°
2026-05-06 17:04 49.62729 13.57648 22766 ft 414 kts 207°
2026-05-06 17:04 49.60171 13.55575 23240 ft 417 kts 207°
2026-05-06 17:04 49.57633 13.53520 23633 ft 420 kts 207°
2026-05-06 17:04 49.55031 13.51417 24040 ft 422 kts 207°
2026-05-06 17:05 49.52429 13.49316 24445 ft 423 kts 207°
2026-05-06 17:05 49.49802 13.47198 24833 ft 425 kts 207°
2026-05-06 17:05 49.47173 13.45080 25196 ft 428 kts 207°
2026-05-06 17:05 49.44531 13.42955 25550 ft 430 kts 207°
2026-05-06 17:06 49.41864 13.40811 25904 ft 432 kts 207°
2026-05-06 17:06 49.39197 13.38671 26257 ft 434 kts 207°
2026-05-06 17:06 49.36510 13.36517 26598 ft 436 kts 207°
2026-05-06 17:06 49.33814 13.34359 26907 ft 439 kts 207°
2026-05-06 17:07 49.31103 13.32190 27245 ft 440 kts 207°
2026-05-06 17:07 49.28377 13.30012 27563 ft 442 kts 207°
2026-05-06 17:07 49.25635 13.27825 27850 ft 444 kts 207°
2026-05-06 17:07 49.22923 13.25676 28229 ft 444 kts 207°
2026-05-06 17:08 49.20170 13.23566 28770 ft 441 kts 206°
2026-05-06 17:08 49.17440 13.21502 29323 ft 438 kts 206°
2026-05-06 17:08 49.14699 13.19427 29772 ft 436 kts 207°
2026-05-06 17:08 49.11978 13.17361 30114 ft 436 kts 206°
2026-05-06 17:09 49.09258 13.15321 30475 ft 435 kts 206°
2026-05-06 17:09 49.06554 13.13318 30845 ft 434 kts 206°
2026-05-06 17:09 49.03834 13.11312 31244 ft 432 kts 206°
2026-05-06 17:09 49.01128 13.09319 31611 ft 431 kts 206°
2026-05-06 17:10 48.98447 13.07343 31978 ft 429 kts 206°
2026-05-06 17:10 48.95750 13.05354 32342 ft 428 kts 206°
2026-05-06 17:10 48.93108 13.03408 32665 ft 428 kts 206°
2026-05-06 17:10 48.90422 13.01430 33003 ft 427 kts 206°
2026-05-06 17:11 48.87753 12.99466 33409 ft 425 kts 206°
2026-05-06 17:11 48.85088 12.97508 33770 ft 424 kts 206°
2026-05-06 17:11 48.82444 12.95567 34080 ft 422 kts 207°
2026-05-06 17:11 48.79797 12.93626 34356 ft 421 kts 207°
2026-05-06 17:12 48.77151 12.91689 34595 ft 422 kts 207°
2026-05-06 17:12 48.72112 12.87325 34713 ft 423 kts 218°
2026-05-06 17:13 48.67744 12.81324 34715 ft 419 kts 223°
2026-05-06 17:13 48.63501 12.75313 34694 ft 416 kts 223°
2026-05-06 17:14 48.59256 12.69427 34704 ft 414 kts 223°
2026-05-06 17:14 48.55032 12.63554 34716 ft 413 kts 223°
2026-05-06 17:15 48.50787 12.57649 34724 ft 413 kts 223°
2026-05-06 17:15 48.46556 12.51779 34718 ft 414 kts 223°
2026-05-06 17:16 48.42325 12.45980 34728 ft 415 kts 221°
2026-05-06 17:16 48.37917 12.40358 34737 ft 416 kts 220°
2026-05-06 17:17 48.33471 12.34772 34754 ft 416 kts 220°
2026-05-06 17:17 48.29043 12.29178 34762 ft 417 kts 220°
2026-05-06 17:18 48.24601 12.23552 34778 ft 417 kts 220°
2026-05-06 17:18 48.20172 12.17950 34787 ft 414 kts 220°
2026-05-06 17:19 48.15783 12.12411 34805 ft 412 kts 220°
2026-05-06 17:19 48.11419 12.06915 34811 ft 414 kts 220°
2026-05-06 17:20 48.06996 12.01360 34820 ft 414 kts 220°
2026-05-06 17:20 48.02580 11.95825 34821 ft 414 kts 220°
2026-05-06 17:21 47.98166 11.90304 34822 ft 414 kts 220°
2026-05-06 17:21 47.93772 11.84824 34834 ft 413 kts 219°
2026-05-06 17:21 47.91349 11.82430 34830 ft 414 kts 208°
2026-05-06 17:22 47.88711 11.80808 34832 ft 416 kts 200°
2026-05-06 17:22 47.82989 11.79466 34836 ft 421 kts 185°
2026-05-06 17:23 47.77124 11.79263 34820 ft 420 kts 185°
2026-05-06 17:23 47.71292 11.78972 34823 ft 418 kts 186°
2026-05-06 17:24 47.65466 11.78638 34803 ft 418 kts 186°
2026-05-06 17:24 47.59658 11.78315 34776 ft 417 kts 186°
2026-05-06 17:25 47.53870 11.78002 34782 ft 415 kts 186°
2026-05-06 17:25 47.48124 11.77677 34786 ft 415 kts 186°
2026-05-06 17:26 47.42360 11.77357 34773 ft 415 kts 186°
2026-05-06 17:26 47.36568 11.77036 34770 ft 417 kts 186°
2026-05-06 17:27 47.30763 11.76699 34779 ft 418 kts 186°
2026-05-06 17:27 47.24937 11.76344 34783 ft 418 kts 186°
2026-05-06 17:28 47.19114 11.75995 34786 ft 419 kts 186°
2026-05-06 17:28 47.13287 11.75522 34790 ft 416 kts 192°
2026-05-06 17:29 47.07771 11.73214 34800 ft 410 kts 207°
2026-05-06 17:29 47.02647 11.69660 34811 ft 410 kts 207°
2026-05-06 17:30 46.97461 11.66146 34828 ft 411 kts 206°
2026-05-06 17:30 46.92253 11.62670 34809 ft 411 kts 206°
2026-05-06 17:31 46.87068 11.59212 34838 ft 409 kts 207°
2026-05-06 17:31 46.81880 11.55757 34839 ft 410 kts 207°
2026-05-06 17:32 46.76684 11.52300 34843 ft 410 kts 207°
2026-05-06 17:32 46.71488 11.48850 34852 ft 410 kts 207°
2026-05-06 17:33 46.66304 11.45412 34857 ft 409 kts 207°
2026-05-06 17:33 46.61160 11.41988 34858 ft 408 kts 207°
2026-05-06 17:34 46.56000 11.38559 34856 ft 409 kts 207°
2026-05-06 17:34 46.50819 11.35124 34855 ft 408 kts 207°
2026-05-06 17:35 46.45599 11.31868 34845 ft 409 kts 200°
2026-05-06 17:35 46.40060 11.29821 34939 ft 407 kts 198°
2026-05-06 17:36 46.31969 11.26927 34958 ft 397 kts 198°
2026-05-06 17:36 46.26637 11.24990 34975 ft 396 kts 198°
2026-05-06 17:37 46.21286 11.23044 34957 ft 397 kts 198°
2026-05-06 17:37 46.15919 11.21096 34955 ft 398 kts 198°
2026-05-06 17:38 46.13209 11.20112 34445 ft 404 kts 198°
2026-05-06 17:38 46.10505 11.19135 33917 ft 398 kts 198°
2026-05-06 17:38 46.07786 11.18152 32799 ft 404 kts 198°
2026-05-06 17:38 46.05054 11.17165 32100 ft 402 kts 198°
2026-05-06 17:39 46.02355 11.16194 31573 ft 396 kts 198°
2026-05-06 17:39 45.99729 11.15250 31009 ft 392 kts 199°
2026-05-06 17:39 45.97068 11.14294 30508 ft 386 kts 199°
2026-05-06 17:39 45.94506 11.13373 30010 ft 382 kts 199°
2026-05-06 17:40 45.91932 11.12448 29429 ft 378 kts 199°
2026-05-06 17:40 45.89421 11.11543 28912 ft 371 kts 199°
2026-05-06 17:40 45.86918 11.10646 28387 ft 367 kts 199°
2026-05-06 17:40 45.84459 11.09762 27916 ft 362 kts 199°
2026-05-06 17:41 45.82029 11.08896 27430 ft 358 kts 198°
2026-05-06 17:41 45.79618 11.08031 26935 ft 356 kts 198°
2026-05-06 17:41 45.77231 11.07173 26418 ft 354 kts 199°
2026-05-06 17:41 45.74840 11.06320 25933 ft 351 kts 198°
2026-05-06 17:42 45.72518 11.05492 25454 ft 349 kts 198°
2026-05-06 17:42 45.70155 11.04649 24969 ft 347 kts 198°
2026-05-06 17:42 45.67813 11.03816 24498 ft 345 kts 198°
2026-05-06 17:42 45.65448 11.03213 24012 ft 347 kts 190°
2026-05-06 17:43 45.63026 11.03079 23470 ft 352 kts 184°
2026-05-06 17:43 45.60568 11.03457 22859 ft 357 kts 177°
2026-05-06 17:43 45.58121 11.04050 22330 ft 355 kts 176°
2026-05-06 17:43 45.56522 11.04456 22004 ft 353 kts 176°
2026-05-06 17:44 45.54096 11.05075 21548 ft 350 kts 176°
2026-05-06 17:44 45.50928 11.05873 20899 ft 347 kts 176°
2026-05-06 17:44 45.49325 11.06273 20610 ft 345 kts 176°
2026-05-06 17:44 45.46973 11.06852 20147 ft 343 kts 176°
2026-05-06 17:45 45.44616 11.07429 19689 ft 342 kts 176°
2026-05-06 17:45 45.42272 11.08000 19243 ft 342 kts 176°
2026-05-06 17:45 45.39936 11.08568 18795 ft 341 kts 176°
2026-05-06 17:45 45.37595 11.09136 18341 ft 340 kts 176°
2026-05-06 17:46 45.35269 11.09701 17865 ft 339 kts 176°
2026-05-06 17:46 45.32980 11.10255 17370 ft 337 kts 175°
2026-05-06 17:46 45.30677 11.10813 16925 ft 335 kts 175°
2026-05-06 17:46 45.28381 11.11369 16472 ft 333 kts 175°
2026-05-06 17:47 45.26109 11.11919 16032 ft 330 kts 175°
2026-05-06 17:47 45.23860 11.12462 15595 ft 328 kts 174°
2026-05-06 17:47 45.21606 11.13006 15157 ft 326 kts 174°
2026-05-06 17:47 45.19373 11.13544 14730 ft 324 kts 174°
2026-05-06 17:48 45.17158 11.14077 14236 ft 324 kts 173°
2026-05-06 17:48 45.14907 11.14616 13684 ft 327 kts 173°
2026-05-06 17:48 45.12662 11.15154 13157 ft 326 kts 173°
2026-05-06 17:48 45.10427 11.15690 12690 ft 324 kts 173°
2026-05-06 17:49 45.08249 11.16212 12255 ft 321 kts 173°
2026-05-06 17:49 45.06045 11.16740 11819 ft 319 kts 173°
2026-05-06 17:49 45.03873 11.17259 11388 ft 317 kts 173°
2026-05-06 17:49 45.01694 11.17780 10963 ft 315 kts 173°
2026-05-06 17:50 44.99536 11.18295 10586 ft 313 kts 173°
2026-05-06 17:50 44.97444 11.18795 10458 ft 302 kts 173°
2026-05-06 17:50 44.95399 11.19284 10316 ft 292 kts 173°
2026-05-06 17:50 44.93412 11.19758 10187 ft 283 kts 173°
2026-05-06 17:51 44.91500 11.20214 10066 ft 274 kts 174°
2026-05-06 17:51 44.89645 11.20652 9946 ft 266 kts 174°
2026-05-06 17:51 44.87835 11.21076 9740 ft 262 kts 174°
2026-05-06 17:51 44.86074 11.21486 9463 ft 260 kts 174°
2026-05-06 17:52 44.84288 11.21902 9178 ft 258 kts 174°
2026-05-06 17:52 44.82522 11.22315 8904 ft 256 kts 174°
2026-05-06 17:52 44.80769 11.22724 8629 ft 254 kts 174°
2026-05-06 17:52 44.79031 11.23130 8363 ft 252 kts 174°
2026-05-06 17:53 44.77299 11.23365 8064 ft 247 kts 189°
2026-05-06 17:53 44.75654 11.22795 7821 ft 242 kts 199°
2026-05-06 17:53 44.74049 11.22113 7556 ft 240 kts 199°
2026-05-06 17:53 44.72470 11.21448 7293 ft 239 kts 199°
2026-05-06 17:54 44.70972 11.20507 7145 ft 228 kts 221°
2026-05-06 17:54 44.70026 11.18839 7055 ft 220 kts 244°
2026-05-06 17:54 44.69648 11.16746 6835 ft 226 kts 265°
2026-05-06 17:54 44.69878 11.14508 6609 ft 238 kts 287°
2026-05-06 17:55 44.70570 11.12344 6378 ft 245 kts 292°
2026-05-06 17:55 44.71348 11.10221 6092 ft 245 kts 294°
2026-05-06 17:55 44.72151 11.08112 5812 ft 244 kts 294°
2026-05-06 17:55 44.72942 11.06027 5598 ft 241 kts 292°
2026-05-06 17:56 44.73311 11.03799 5343 ft 227 kts 263°
2026-05-06 17:56 44.72842 11.01762 5067 ft 218 kts 238°
2026-05-06 17:56 44.71865 11.00185 4834 ft 208 kts 218°
2026-05-06 17:56 44.70657 10.99183 4606 ft 196 kts 208°
2026-05-06 17:57 44.69463 10.98351 4345 ft 187 kts 207°
2026-05-06 17:57 44.68320 10.97562 4103 ft 185 kts 208°
2026-05-06 17:57 44.67171 10.96773 3836 ft 183 kts 205°
2026-05-06 17:57 44.65916 10.96579 3533 ft 188 kts 168°
2026-05-06 17:58 44.64815 10.97558 3226 ft 194 kts 130°
2026-05-06 17:58 44.64215 10.99261 3082 ft 196 kts 116°
2026-05-06 17:58 44.63618 11.00980 3051 ft 196 kts 119°
2026-05-06 17:58 44.63005 11.02667 2985 ft 191 kts 120°
2026-05-06 17:59 44.62410 11.04304 2976 ft 186 kts 120°
2026-05-06 17:59 44.61830 11.05904 2997 ft 187 kts 120°
2026-05-06 17:59 44.61236 11.07539 3010 ft 191 kts 120°
2026-05-06 17:59 44.60630 11.09213 2975 ft 191 kts 120°
2026-05-06 18:00 44.60021 11.10897 2741 ft 195 kts 120°
2026-05-06 18:00 44.59413 11.12579 2483 ft 192 kts 120°
2026-05-06 18:00 44.58826 11.14209 2223 ft 181 kts 120°
2026-05-06 18:00 44.58272 11.15743 1991 ft 171 kts 121°
2026-05-06 18:01 44.57769 11.17141 1804 ft 150 kts 121°
2026-05-06 18:01 44.57318 11.18389 1580 ft 141 kts 123°
2026-05-06 18:01 44.56870 11.19625 1410 ft 143 kts 122°
2026-05-06 18:01 44.56423 11.20865 1194 ft 142 kts 121°
2026-05-06 18:02 44.55993 11.22061 996 ft 136 kts 120°
2026-05-06 18:02 44.55565 11.23257 799 ft 135 kts 119°
2026-05-06 18:02 44.55143 11.24438 616 ft 134 kts 118°
2026-05-06 18:02 44.54728 11.25592 452 ft 133 kts 119°
2026-05-06 18:03 44.54322 11.26718 285 ft 130 kts 118°
2026-05-06 18:03 44.53926 11.27810 135 ft 119 kts 118°
2026-05-06 18:03 44.53608 11.28683 126 ft 72 kts 117°
2026-05-06 18:03 44.53475 11.29056 125 ft 13 kts 116°
2026-05-06 18:04 44.53439 11.29158 127 ft 12 kts 116°
2026-05-06 18:04 44.53400 11.29265 126 ft 12 kts 116°
2026-05-06 18:04 44.53364 11.29368 127 ft 13 kts 116°
2026-05-06 18:04 44.53316 11.29496 126 ft 16 kts 128°
2026-05-06 18:05 44.53240 11.29605 126 ft 16 kts 142°
2026-05-06 18:05 44.53146 11.29695 127 ft 16 kts 147°
2026-05-06 18:05 44.53063 11.29772 129 ft 14 kts 150°
2026-05-06 18:05 44.53029 11.29768 129 ft 0 kts 220°
2026-05-06 18:06 44.53026 11.29724 127 ft 6 kts 287°
2026-05-06 18:06 44.53053 11.29668 127 ft 9 kts 304°
2026-05-06 18:06 44.53071 11.29581 130 ft 9 kts 245°
2026-05-06 18:06 44.53052 11.29525 127 ft 2 kts 240°
2026-05-06 18:07 44.53042 11.29508 127 ft 2 kts 226°
2026-05-06 18:07 44.53027 11.29495 127 ft 2 kts 207°
2026-05-06 18:07 44.53022 11.29492 127 ft 0 kts 207°
2026-05-06 18:07 44.53020 11.29490 130 ft 0 kts 207°
2026-05-06 18:08 44.53018 11.29488 126 ft 0 kts 207°
2026-05-06 18:08 44.53016 11.29487 126 ft 0 kts 207°
2026-05-06 18:08 44.53014 11.29486 126 ft 0 kts 207°